IR0UGI-3 Weather Reports


time (UTC)temp
C
wind
direction
speed
KPH
gust
KPH
rain 1hr
cm
rain 24hr
cm
rain mn
cm
humidity
%
barometer
mb
20260505201004 12 14 27.4 33.8 0.00 0.18 0.18 98 1023.4
20260505200004 12 23 16.1 35.4 0.00 0.18 0.18 99 1023.4
20260505195004 12 26 16.1 20.9 0.00 0.18 0.18 96 1023.3
20260505194005 12 31 12.9 17.7 0.00 0.18 0.18 96 1023.4
20260505193004 12 19 11.3 14.5 0.00 0.18 0.18 97 1023.2
20260505192004 12 30 11.3 17.7 0.00 0.18 0.18 98 1023.1
20260505191004 12 29 12.9 17.7 0.00 0.18 0.18 97 1022.9
20260505190004 12 23 12.9 17.7 0.00 0.18 0.18 96 1022.9
20260505185004 12 42 12.9 20.9 0.00 0.18 0.18 95 1022.9
20260505184004 12 40 16.1 22.5 0.00 0.18 0.18 94 1023.0
20260505183004 12 12 12.9 14.5 0.00 0.18 0.18 93 1022.7
20260505181004 12 41 16.1 20.9 0.00 0.18 0.18 90 1022.9
20260505175004 13 23 9.7 17.7 0.00 0.18 0.18 89 1023.0
20260505174003 13 25 11.3 20.9 0.00 0.18 0.18 88 1022.9
20260505173004 13 13 12.9 22.5 0.00 0.18 0.18 86 1022.9
20260505172004 13 18 11.3 20.9 0.00 0.18 0.18 91 1023.2
20260505171004 13 12 12.9 20.9 0.00 0.18 0.18 89 1022.9
20260505165003 14 14 11.3 20.9 0.00 0.18 0.18 90 1023.0
20260505164004 14 22 11.3 20.9 0.00 0.18 0.18 89 1022.9
20260505163004 15 4 6.4 14.5 0.00 0.18 0.18 87 1023.0
20260505162006 15 20 9.7 17.7 0.00 0.18 0.18 90 1023.0
20260505161005 15 17 9.7 17.7 0.00 0.18 0.18 86 1023.0
20260505153006 15 28 8.0 20.9 0.00 0.18 0.18 85 1023.1
20260505152005 15 30 11.3 20.9 0.00 0.18 0.18 85 1023.1
20260505125005 14 29 14.5 35.4 0.00 0.18 0.18 84 1023.6
20260505124005 13 46 12.9 29.0 0.00 0.18 0.18 87 1023.6
20260505123006 13 36 20.9 38.6 0.00 0.18 0.18 89 1023.7
20260505122005 12 43 24.1 43.5 0.00 0.18 0.18 91 1023.7
20260505121005 12 44 14.5 32.2 0.00 0.18 0.18 93 1023.8
20260505120006 12 43 17.7 40.2 0.00 0.18 0.18 95 1023.9
20260505115006 12 48 22.5 40.2 0.00 0.18 0.18 94 1023.9
20260505114006 12 41 24.1 35.4 0.00 0.18 0.18 96 1024.1
20260505113005 12 24 19.3 43.5 0.00 0.18 0.18 95 1024.0
20260505112005 12 31 25.7 43.5 0.00 0.18 0.18 93 1024.1
20260505102005 12 17 20.9 32.2 0.03 0.18 0.18 95 1024.2
20260505101005 11 32 16.1 24.1 0.03 0.18 0.18 96 1024.4
20260505100006 12 28 19.3 24.1 0.03 0.18 0.18 94 1024.5
20260505095005 12 27 16.1 24.1 0.00 0.15 0.15 94 1024.3
20260505094005 12 29 17.7 25.7 0.00 0.15 0.15 93 1024.4
20260505093005 12 39 17.7 24.1 0.00 0.15 0.15 92 1024.3
20260505092005 13 31 14.5 24.1 0.00 0.15 0.15 91 1024.3
20260505091005 13 30 9.7 14.5 0.00 0.15 0.15 89 1024.2
20260505090005 13 32 6.4 17.7 0.00 0.15 0.15 88 1024.3
20260505085005 13 34 12.9 22.5 0.00 0.15 0.15 87 1024.4
20260505083005 13 38 8.0 17.7 0.00 0.15 0.15 85 1024.2
20260505081005 13 357 8.0 17.7 0.00 0.15 0.15 85 1024.2
20260505080005 13 34 12.9 20.9 0.00 0.15 0.15 83 1024.0
20260505075006 12 46 16.1 20.9 0.00 0.15 0.15 89 1024.2
20260505074005 12 38 16.1 29.0 0.00 0.15 0.15 90 1024.2
20260505073005 11 31 12.9 33.8 0.00 0.15 0.15 93 1024.2
20260505072005 11 71 22.5 43.5 0.00 0.15 0.15 94 1024.3
20260505071005 11 43 17.7 38.6 0.00 0.15 0.15 92 1024.4
20260505070005 11 43 14.5 43.5 0.00 0.15 0.15 93 1024.6
20260505065005 11 43 24.1 37.0 0.10 0.15 0.15 93 1024.3
20260505064005 11 58 19.3 38.6 0.15 0.15 0.15 93 1024.1
20260505063005 11 48 22.5 43.5 0.15 0.15 0.15 92 1024.3
20260505061005 11 65 24.1 43.5 0.15 0.15 0.15 96 1024.2
20260505055006 11 42 14.5 29.0 0.05 0.05 0.05 95 1024.2
20260505054005 11 32 16.1 22.5 0.00 0.00 0.00 91 1024.0
20260505053005 11 24 6.4 17.7 0.00 0.00 0.00 91 1024.2
20260505052005 11 32 8.0 22.5 0.00 0.00 0.00 89 1024.2
20260505051005 11 35 11.3 12.9 0.00 0.00 0.00 88 1024.2
20260505041005 11 41 14.5 27.4 0.00 0.00 0.00 90 1024.0
20260505040005 11 37 17.7 27.4 0.00 0.00 0.00 91 1023.7
20260505035005 11 34 22.5 37.0 0.00 0.00 0.00 88 1023.8
20260505034005 12 64 20.9 33.8 0.00 0.00 0.00 85 1023.8
20260505033004 12 54 12.9 29.0 0.00 0.00 0.00 83 1024.1
20260505031005 12 81 8.0 27.4 0.00 0.00 0.00 83 1024.1
20260505030005 12 58 12.9 27.4 0.00 0.00 0.00 82 1024.2
20260505025005 12 46 9.7 25.7 0.00 0.00 0.00 82 1024.1
20260505024004 12 69 14.5 29.0 0.00 0.00 0.00 82 1024.2
20260505023004 12 52 9.7 24.1 0.00 0.00 0.00 83 1024.1
20260505022005 12 51 11.3 17.7 0.00 0.00 0.00 83 1024.1
20260505021005 12 58 8.0 22.5 0.00 0.00 0.00 80 1024.1
20260505020005 12 32 11.3 24.1 0.00 0.00 0.00 79 1024.3
20260505015005 13 54 12.9 20.9 0.00 0.00 0.00 78 1024.4
20260505014005 13 36 9.7 20.9 0.00 0.00 0.00 77 1024.2
20260505013005 13 46 8.0 22.5 0.00 0.00 0.00 77 1024.3
20260505012005 13 48 11.3 38.6 0.00 0.00 0.00 76 1024.5
20260505011005 13 65 14.5 35.4 0.00 0.00 0.00 75 1024.2
20260505010005 13 54 19.3 37.0 0.00 0.03 0.00 76 1024.2
20260505005005 13 55 17.7 32.2 0.00 0.03 0.00 79 1024.4
20260505004005 13 30 12.9 29.0 0.00 0.03 0.00 79 1024.4
20260505001005 12 42 17.7 29.0 0.00 0.15 0.00 87 1024.5
20260505000005 12 52 14.5 33.8 0.00 0.15 0.00 87 1024.6
20260504235005 12 43 12.9 33.8 0.00 0.15 0.00 86 1024.7
20260504234005 12 46 16.1 33.8 0.00 0.15 0.00 88 1024.9
20260504233005 12 21 12.9 40.2 0.00 0.15 0.00 89 1024.9
20260504232005 12 13 24.1 38.6 0.00 0.15 0.00 85 1025.0
20260504231005 12 39 24.1 38.6 0.00 0.15 0.00 85 1025.0
20260504230005 12 49 16.1 33.8 0.00 0.15 0.00 86 1025.0
20260504225004 12 57 17.7 32.2 0.00 0.15 0.00 87 1025.2
20260504224004 12 57 11.3 35.4 0.00 0.15 0.00 91 1025.2
20260504223005 12 48 17.7 29.0 0.00 0.15 0.00 91 1025.2
20260504222005 12 31 9.7 33.8 0.00 0.15 0.00 91 1025.3
20260504221005 12 33 12.9 29.0 0.00 0.15 0.00 92 1025.4
20260504220009 12 52 17.7 29.0 0.00 0.15 0.00 94 1025.4
20260504214005 12 78 16.1 24.1 0.00 0.15 0.15 92 1025.6
20260504213004 12 50 12.9 37.0 0.00 0.15 0.15 91 1025.7
20260504211005 12 52 11.3 29.0 0.00 0.15 0.15 95 1025.8
20260504210005 12 58 12.9 24.1 0.00 0.15 0.15 94 1025.6
20260504205005 12 43 17.7 25.7 0.00 0.15 0.15 93 1025.5
20260504204005 12 66 9.7 27.4 0.00 0.15 0.15 94 1025.5
20260504203005 12 59 17.7 29.0 0.00 0.15 0.15 93 1025.6
20260504202004 12 66 14.5 33.8 0.00 0.15 0.15 90 1025.6